(289863) = 2001 XL205 = 2005 MK12

Discovered at Palomar on 2005-06-28 by NEAT.

Orbit

Orbit type: Main Belt

Note: WebGL enabled browser required.

epoch2024-03-31.0
epoch JD2460400.5
perihelion date2021-08-25.36696
perihelion JD2459451.86696
argument of perihelion (°)211.12683
ascending node (°)112.94588
inclination (°)14.04995
eccentricity0.1404947
perihelion distance (AU)2.6094725
Tisserand w.r.t. Jupiter3.2
ΔV w.r.t. Earth (km/sec)11.0
semimajor axis (AU)3.0360169
mean anomaly (°)176.74446
mean daily motion (°/day)0.18631490
aphelion distance (AU)3.463
period (years)5.29
P-vector [x]0.79552156
P-vector [y]-0.49395244
P-vector [z]-0.35093651
Q-vector [x]0.56317590
Q-vector [y]0.81644664
Q-vector [z]0.12746684
absolute magnitude15.5
phase slope0.15
uncertainty0
referenceMPEC 2024-E179
observations used438
oppositions16
arc length (days)8600
first opposition used2000
last opposition used2024
residual rms (arc-secs)0.79
perturbers coarse indicatorM-v
perturbers precise indicator003Ek
first observation date used2000-08-26.0
last observation date used2024-03-13.0
computer nameMPCLINUX
JD of orbit computation2456819.402128
perihelion JD uncertainty (days)2.0539E-04
argument of perihelion uncertainty (°)4.6653E-05
ascending node uncertainty (°)3.4973E-05
inclination uncertainty (°)8.9007E-06
eccentricity uncertainty 1.1503E-07
perihelion distance uncertainty (AU)3.3218E-07
Minimum Orbit Intersection Distances (in AU)
for orbit epoch: 2460200.5, reference: E2024-CC8
Mercury2.18872
Venus1.88276
Earth1.60513
Mars1.22606
Jupiter1.84254
Saturn5.70124
Uranus15.0504
Neptune26.8023

Observations

447 total observations over interval: 2000 08 26.34086 – 2024 03 13.192518
These data are available for download (format description).

Date (UT) J2000 RA J2000 Dec Magn Location Ref
2000 08 26.34086 23 47 42.30 -19 56 41.4 18.7   704 – Lincoln Laboratory ETS, New Mexico MPS 137488
2000 08 26.36758 23 47 41.43 -19 56 56.2 19.4   704 – Lincoln Laboratory ETS, New Mexico MPS 137488
2000 08 26.38094 23 47 40.85 -19 57 02.8 19.4   704 – Lincoln Laboratory ETS, New Mexico MPS 137488
2001 12 11.29601 05 29 59.40 +12 23 45.5 19.9   704 – Lincoln Laboratory ETS, New Mexico MPS 45378
2001 12 11.31172 05 29 58.58 +12 23 46.8 20.3   704 – Lincoln Laboratory ETS, New Mexico MPS 45378
2001 12 11.32682 05 29 57.71 +12 23 49.5 20.2   704 – Lincoln Laboratory ETS, New Mexico MPS 45378
2001 12 11.34188 05 29 56.89 +12 23 51.3 20.4   704 – Lincoln Laboratory ETS, New Mexico MPS 45378
2001 12 18.23672 05 23 47.62 +12 40 49.5 19.9   704 – Lincoln Laboratory ETS, New Mexico MPS 45378
2001 12 18.25298 05 23 46.80 +12 40 52.4 20.1   704 – Lincoln Laboratory ETS, New Mexico MPS 45378
2001 12 18.28446 05 23 45.13 +12 40 56.6 20.0   704 – Lincoln Laboratory ETS, New Mexico MPS 45378
2005 06 28.38503 21 07 44.15 -19 16 42.2 19.9   644 – Palomar Mountain/NEAT MPS 137128
2005 06 28.41336 21 07 43.70 -19 16 54.4 19.7   644 – Palomar Mountain/NEAT MPS 137128
2005 06 28.43538 21 07 43.35 -19 17 04.3 19.5   644 – Palomar Mountain/NEAT MPS 137128
2005 06 30.33235 21 07 12.89 -19 30 59.8 19.7 V 691 – Steward Observatory, Kitt Peak-Spacewatch MPS 137128
2005 06 30.35016 21 07 12.56 -19 31 07.5 19.4 V 691 – Steward Observatory, Kitt Peak-Spacewatch MPS 137128
2005 06 30.37141 21 07 12.13 -19 31 17.5 20.0 V 691 – Steward Observatory, Kitt Peak-Spacewatch MPS 137128
2005 07 03.36647 21 06 13.14 -19 54 15.5 19.9   644 – Palomar Mountain/NEAT MPS 137488
2005 07 03.38124 21 06 12.83 -19 54 22.5 19.6   644 – Palomar Mountain/NEAT MPS 137488
2005 07 03.39228 21 06 12.55 -19 54 27.8 19.3   644 – Palomar Mountain/NEAT MPS 137488
2005 07 31.53024 20 48 43.66 -24 00 25.2 19.3 V E12 – Siding Spring Survey MPS 138902
2005 07 31.53756 20 48 43.30 -24 00 29.4 18.9 V E12 – Siding Spring Survey MPS 138902
2005 07 31.54538 20 48 42.91 -24 00 33.1 18.9 V E12 – Siding Spring Survey MPS 138902
2005 07 31.55273 20 48 42.62 -24 00 37.1 18.5 V E12 – Siding Spring Survey MPS 138902
2005 08 24.56192 20 31 31.51 -26 55 44.5 20.2 V E12 – Siding Spring Survey MPS 139673
2005 08 24.57591 20 31 31.18 -26 55 51.0 19.2 V E12 – Siding Spring Survey MPS 139673
2005 08 24.58987 20 31 30.61 -26 55 55.9 18.6 V E12 – Siding Spring Survey MPS 139673
2005 08 24.60383 20 31 30.07 -26 55 59.0 17.9 V E12 – Siding Spring Survey MPS 139673
2006 10 30.38341 04 12 43.84 +03 12 44.0 19.4 V 703 – Catalina Sky Survey MPS 185482
2006 10 30.38951 04 12 43.56 +03 12 43.3 19.2 V 703 – Catalina Sky Survey MPS 185482
2006 10 30.40668 04 12 42.80 +03 12 38.5 19.0 V 703 – Catalina Sky Survey MPS 185482
2006 10 30.41315 04 12 42.69 +03 12 38.9 19.3 V 703 – Catalina Sky Survey MPS 185482
2006 11 13.27986 04 02 04.63 +02 46 40.1 18.6 V 703 – Catalina Sky Survey MPS 187018
2006 11 13.28639 04 02 04.45 +02 46 40.6 18.7 V 703 – Catalina Sky Survey MPS 187018
2006 11 13.29292 04 02 03.98 +02 46 39.9 18.9 V 703 – Catalina Sky Survey MPS 187018
2006 11 13.29947 04 02 03.51 +02 46 37.3 20.0 V 703 – Catalina Sky Survey MPS 187018
2006 11 19.32303 03 56 52.87 +02 42 20.7 19.8 V 703 – Catalina Sky Survey MPS 188709
2006 11 19.32960 03 56 52.51 +02 42 21.7 19.5 V 703 – Catalina Sky Survey MPS 188709
2006 11 19.33616 03 56 52.11 +02 42 21.6 18.9 V 703 – Catalina Sky Survey MPS 188709
2006 11 19.34272 03 56 51.82 +02 42 21.6 19.4 V 703 – Catalina Sky Survey MPS 188709
2007 12 14.43828 09 07 30.28 +18 54 49.2 21.6 V G96 – Mt. Lemmon Survey MPS 230930
2007 12 14.44950 09 07 30.14 +18 54 53.1 21.6 V G96 – Mt. Lemmon Survey MPS 230930
2007 12 14.45789 09 07 30.03 +18 54 55.1 21.4 V G96 – Mt. Lemmon Survey MPS 230930
2007 12 14.46622 09 07 29.96 +18 54 56.3 21.6 V G96 – Mt. Lemmon Survey MPS 230930
2007 12 31.33112 09 01 36.84 +20 19 14.0 20.9 V G96 – Mt. Lemmon Survey MPS 232625
2007 12 31.33978 09 01 36.51 +20 19 16.9 20.6 V G96 – Mt. Lemmon Survey MPS 232625
2007 12 31.34826 09 01 36.26 +20 19 19.5 20.7 V G96 – Mt. Lemmon Survey MPS 232625
2007 12 31.35685 09 01 36.01 +20 19 22.7 20.2 V G96 – Mt. Lemmon Survey MPS 232625
2008 01 16.28600 08 51 09.38 +21 57 22.6 20.2 V 691 – Steward Observatory, Kitt Peak-Spacewatch MPS 234267
2008 01 16.30437 08 51 08.43 +21 57 29.8 20.4 V 691 – Steward Observatory, Kitt Peak-Spacewatch MPS 234267
2008 01 16.32248 08 51 07.59 +21 57 36.5 20.5 V 691 – Steward Observatory, Kitt Peak-Spacewatch MPS 234267
2008 01 20.30027 08 48 00.24 +22 22 52.4 20.2 V 691 – Steward Observatory, Kitt Peak-Spacewatch MPS 235054
2008 01 20.31842 08 47 59.37 +22 22 59.4 20.2 V 691 – Steward Observatory, Kitt Peak-Spacewatch MPS 235054
2008 01 20.33682 08 47 58.42 +22 23 06.6 20.3 V 691 – Steward Observatory, Kitt Peak-Spacewatch MPS 235054
2008 02 03.19250 08 36 29.80 +23 46 58.7 20.3 V 703 – Catalina Sky Survey MPS 236248
2008 02 03.19882 08 36 29.59 +23 46 59.6 20.1 V 703 – Catalina Sky Survey MPS 236248
2008 02 03.20515 08 36 29.23 +23 47 02.9 20.1 V 703 – Catalina Sky Survey MPS 236248
2008 02 03.21148 08 36 28.83 +23 47 04.8 20.3 V 703 – Catalina Sky Survey MPS 236248
2008 02 10.33051 08 30 43.77 +24 25 05.3 20.9 V G96 – Mt. Lemmon Survey MPS 237551
2008 02 10.34221 08 30 43.20 +24 25 08.8 20.9 V G96 – Mt. Lemmon Survey MPS 237551
2008 02 10.35378 08 30 42.66 +24 25 12.1 20.9 V G96 – Mt. Lemmon Survey MPS 237551
2008 02 10.36534 08 30 42.08 +24 25 15.3 20.2 V G96 – Mt. Lemmon Survey MPS 237551
2011 09 24.35083 02 33 52.27 -06 34 26.1 19.6 V 703 – Catalina Sky Survey MPS 394154
2011 09 24.35874 02 33 52.16 -06 34 28.8 20.0 V 703 – Catalina Sky Survey MPS 394154
2011 09 24.37449 02 33 51.76 -06 34 35.1 20.4 V 703 – Catalina Sky Survey MPS 394154
2011 10 01.35498 02 30 36.36 -07 19 30.7 19.4 V 703 – Catalina Sky Survey MPS 394968
2011 10 01.36171 02 30 36.18 -07 19 33.5 19.0 V 703 – Catalina Sky Survey MPS 394968
2011 10 01.36855 02 30 35.89 -07 19 36.7 18.9 V 703 – Catalina Sky Survey MPS 394968
2011 10 01.37528 02 30 35.64 -07 19 38.2 19.1 V 703 – Catalina Sky Survey MPS 394968
2011 10 18.32174 02 19 05.88 -08 51 42.3 19.6 V 703 – Catalina Sky Survey MPS 396159
2011 10 18.32743 02 19 05.62 -08 51 44.0 19.7 V 703 – Catalina Sky Survey MPS 396159
2011 10 18.33304 02 19 05.34 -08 51 45.4 19.4 V 703 – Catalina Sky Survey MPS 396159
2011 10 18.33882 02 19 05.05 -08 51 47.1 19.6 V 703 – Catalina Sky Survey MPS 396159
2011 10 18.42392 02 19 01.177 -08 52 07.74 19.6 i F51 – Pan-STARRS 1, Haleakala MPS 396159
2011 10 18.43594 02 19 00.587 -08 52 10.76 19.6 i F51 – Pan-STARRS 1, Haleakala MPS 396159
2011 10 20.36110 02 17 29.40 -09 00 04.3 19.4 V G96 – Mt. Lemmon Survey MPS 396159
2011 10 20.36631 02 17 29.11 -09 00 05.4 19.4 V G96 – Mt. Lemmon Survey MPS 396159
2011 10 20.37154 02 17 28.86 -09 00 06.7 19.5 V G96 – Mt. Lemmon Survey MPS 396159
2011 10 20.37681 02 17 28.60 -09 00 07.9 19.5 V G96 – Mt. Lemmon Survey MPS 396159
2011 10 20.41176 02 17 27.071 -09 00 14.89 21.2 g F51 – Pan-STARRS 1, Haleakala MPS 396159
2011 10 20.42344 02 17 26.521 -09 00 17.89 20.2 g F51 – Pan-STARRS 1, Haleakala MPS 396159
2011 10 20.46140 02 17 24.643 -09 00 27.05 19.5 r F51 – Pan-STARRS 1, Haleakala MPS 396159
2011 10 20.47255 02 17 24.091 -09 00 29.51 19.5 r F51 – Pan-STARRS 1, Haleakala MPS 396159
2011 10 30.23442 02 09 31.21 -09 29 06.1 19.9 V 703 – Catalina Sky Survey MPS 399878
2011 10 30.24100 02 09 30.85 -09 29 07.7 19.2 V 703 – Catalina Sky Survey MPS 399878
2011 10 30.24764 02 09 30.56 -09 29 07.7 19.6 V 703 – Catalina Sky Survey MPS 399878
2011 10 30.25418 02 09 30.16 -09 29 08.0 19.2 V 703 – Catalina Sky Survey MPS 399878
2011 10 30.26118 02 09 29.89 -09 29 09.1 18.9   704 – Lincoln Laboratory ETS, New Mexico MPS 399878
2011 10 30.27356 02 09 29.24 -09 29 11.4 19.2   704 – Lincoln Laboratory ETS, New Mexico MPS 399878
2011 10 30.28648 02 09 28.71 -09 29 13.1 19.6   704 – Lincoln Laboratory ETS, New Mexico MPS 399878
2011 11 03.24387 02 06 20.16 -09 34 54.8 19.4 V 703 – Catalina Sky Survey MPS 399878
2011 11 03.25325 02 06 19.80 -09 34 56.0 19.3 V 703 – Catalina Sky Survey MPS 399878
